Location: T�bingen+AIT
(48.5342°N, 9.0700°E)
Time: 15:08:06
(UTC+01:00)

Cosmos 2184 Rocket - Pass Details

Date: 14 September 2017
Orbit: 958 x 1003 km, 82.9° (Epoch: 17 November)

Event Time Altitude Azimuth Distance (km) Brightness Sun altitude
Exits shadow 21:53:36 - 190° (S) 3,374 6.6 -21.9°
Reaches altitude 10° 21:55:20 10° 191° (S) 2,724 6.1 -22.1°
Maximum altitude 22:01:35 83° 278° (W) 1,003 4.0 -23.0°
Drops below altitude 10° 22:07:59 10° 8° (N) 2,773 6.7 -23.8°
Sets 22:10:32 0° 9° (N) 3,731 7.4 -24.2°
